| time (UTC) | temp F | wind direction | speed knots | gust knots | rain 1hr in | rain 24hr in | rain mn in | humidity % | barometer mb |
| 20260505080032 | 57 | 158 | 0.0 | 0.0 | 0.00 | 0.00 | 0.00 | 76 | 1016.2 |
| 20260505074534 | 58 | 158 | 0.0 | 0.0 | 0.00 | 0.00 | 0.00 | 76 | 1016.1 |
| 20260505073037 | 58 | 159 | 0.0 | 0.0 | 0.00 | 0.00 | 0.00 | 74 | 1015.9 |
| 20260505071523 | 59 | 159 | 0.0 | 0.0 | 0.00 | 0.00 | 0.00 | 73 | 1015.9 |
| 20260505070034 | 60 | 160 | 0.0 | 0.9 | 0.00 | 0.00 | 0.00 | 72 | 1015.9 |
| 20260505064519 | 60 | 165 | 0.0 | 1.7 | 0.00 | 0.00 | 0.00 | 71 | 1015.8 |
| 20260505063021 | 60 | 204 | 0.0 | 0.0 | 0.00 | 0.00 | 0.00 | 71 | 1015.8 |
| 20260505061522 | 61 | 161 | 0.0 | 0.9 | 0.00 | 0.00 | 0.00 | 70 | 1015.7 |
| 20260505060014 | 61 | 117 | 0.0 | 0.9 | 0.00 | 0.00 | 0.00 | 70 | 1015.8 |
| 20260505054512 | 61 | 186 | 0.0 | 0.9 | 0.00 | 0.00 | 0.00 | 69 | 1015.8 |
| 20260505053015 | 62 | 187 | 0.0 | 0.9 | 0.00 | 0.00 | 0.00 | 68 | 1015.9 |
| 20260505051513 | 62 | 253 | 0.0 | 3.5 | 0.00 | 0.00 | 0.00 | 68 | 1016.1 |
| 20260505041502 | 63 | 165 | 0.0 | 0.0 | 0.00 | 0.00 | 0.00 | 67 | 1016.0 |
| 20260505040101 | 63 | 136 | 0.0 | 3.5 | 0.00 | 0.00 | 0.00 | 67 | 1016.0 |
| 20260505034559 | 64 | 175 | 0.0 | 0.9 | 0.00 | 0.00 | 0.00 | 66 | 1016.1 |
| 20260505034501 | 64 | 175 | 0.0 | 0.9 | 0.00 | 0.00 | 0.00 | 66 | 1016.0 |
| 20260505033059 | 64 | 185 | 0.0 | 1.7 | 0.00 | 0.00 | 0.00 | 66 | 1016.0 |
| 20260505031607 | 65 | 160 | 0.0 | 6.1 | 0.00 | 0.00 | 0.00 | 64 | 1016.0 |
| 20260505024605 | 66 | 185 | 0.0 | 2.6 | 0.00 | 0.00 | 0.00 | 63 | 1016.0 |
| 20260505023057 | 66 | 292 | 0.0 | 1.7 | 0.00 | 0.00 | 0.00 | 61 | 1016.0 |
| 20260505021559 | 67 | 229 | 0.0 | 2.6 | 0.00 | 0.00 | 0.00 | 58 | 1015.8 |
| 20260505020055 | 67 | 167 | 0.0 | 2.6 | 0.00 | 0.00 | 0.00 | 53 | 1015.7 |
| 20260505014608 | 67 | 175 | 0.0 | 0.9 | 0.00 | 0.00 | 0.00 | 50 | 1015.5 |
| 20260505013054 | 68 | 156 | 0.0 | 0.0 | 0.00 | 0.00 | 0.00 | 49 | 1015.2 |
| 20260505011604 | 69 | 165 | 0.0 | 0.9 | 0.00 | 0.00 | 0.00 | 48 | 1015.0 |
| 20260505010054 | 69 | 161 | 0.0 | 0.9 | 0.00 | 0.00 | 0.00 | 47 | 1014.9 |
| 20260505004552 | 70 | 254 | 0.0 | 0.9 | 0.00 | 0.00 | 0.00 | 46 | 1014.5 |
| 20260505003053 | 71 | 159 | 0.0 | 0.0 | 0.00 | 0.00 | 0.00 | 45 | 1014.5 |
| 20260505001552 | 72 | 159 | 0.0 | 0.9 | 0.00 | 0.00 | 0.00 | 42 | 1014.3 |
| 20260505000106 | 73 | 163 | 0.0 | 0.9 | 0.00 | 0.00 | 0.00 | 41 | 1014.3 |
| 20260504234551 | 74 | 234 | 0.0 | 0.9 | 0.00 | 0.00 | 0.00 | 40 | 1014.1 |
| 20260504233106 | 75 | 176 | 0.0 | 0.9 | 0.00 | 0.00 | 0.00 | 38 | 1013.9 |
| 20260504231550 | 76 | 174 | 0.0 | 0.9 | 0.00 | 0.00 | 0.00 | 36 | 1013.8 |
| 20260504230048 | 77 | 195 | 0.0 | 4.3 | 0.00 | 0.00 | 0.00 | 32 | 1013.7 |
| 20260504224553 | 78 | 237 | 0.0 | 9.6 | 0.00 | 0.00 | 0.00 | 32 | 1013.7 |
| 20260504223100 | 78 | 241 | 0.0 | 1.7 | 0.00 | 0.00 | 0.00 | 32 | 1013.7 |
| 20260504221547 | 78 | 220 | 0.0 | 7.0 | 0.00 | 0.00 | 0.00 | 32 | 1013.7 |
| 20260504220045 | 79 | 193 | 0.0 | 7.0 | 0.00 | 0.00 | 0.00 | 31 | 1013.8 |
| 20260504214546 | 79 | 261 | 0.9 | 7.8 | 0.00 | 0.00 | 0.00 | 31 | 1013.9 |
| 20260504213055 | 78 | 236 | 0.9 | 3.5 | 0.00 | 0.00 | 0.00 | 31 | 1013.9 |
| 20260504211543 | 79 | 235 | 0.9 | 11.3 | 0.00 | 0.00 | 0.00 | 32 | 1013.9 |
| 20260504210043 | 79 | 250 | 0.9 | 6.1 | 0.00 | 0.00 | 0.00 | 32 | 1013.9 |
| 20260504204546 | 79 | 217 | 0.9 | 7.8 | 0.00 | 0.00 | 0.00 | 32 | 1014.1 |
| 20260504203049 | 79 | 196 | 0.0 | 8.7 | 0.00 | 0.00 | 0.00 | 34 | 1014.2 |
| 20260504201539 | 78 | 259 | 0.0 | 4.3 | 0.00 | 0.00 | 0.00 | 34 | 1014.3 |
| 20260504200037 | 78 | 234 | 1.7 | 8.7 | 0.00 | 0.00 | 0.00 | 34 | 1014.5 |
| 20260504194536 | 78 | 242 | 0.9 | 6.1 | 0.00 | 0.00 | 0.00 | 33 | 1014.6 |
| 20260504193033 | 78 | 273 | 0.0 | 7.0 | 0.00 | 0.00 | 0.00 | 37 | 1014.6 |
| 20260504191531 | 77 | 188 | 0.0 | 4.3 | 0.00 | 0.00 | 0.00 | 36 | 1014.8 |
| 20260504190029 | 77 | 221 | 0.0 | 3.5 | 0.00 | 0.00 | 0.00 | 35 | 1015.2 |
| 20260504184527 | 76 | 224 | 0.9 | 9.6 | 0.00 | 0.00 | 0.00 | 35 | 1015.4 |
| 20260504183024 | 76 | 236 | 0.0 | 2.6 | 0.00 | 0.00 | 0.00 | 35 | 1015.4 |
| 20260504181521 | 76 | 221 | 0.9 | 3.5 | 0.00 | 0.00 | 0.00 | 35 | 1015.6 |
| 20260504180019 | 75 | 234 | 0.0 | 6.1 | 0.00 | 0.00 | 0.00 | 38 | 1015.7 |
| 20260504174517 | 74 | 251 | 0.9 | 4.3 | 0.00 | 0.00 | 0.00 | 38 | 1015.8 |
| 20260504173013 | 74 | 167 | 0.0 | 3.5 | 0.00 | 0.00 | 0.00 | 45 | 1016.2 |
| 20260504171510 | 73 | 223 | 0.9 | 7.8 | 0.00 | 0.00 | 0.00 | 42 | 1016.4 |
| 20260504081520 | 46 | 209 | 0.0 | 0.0 | 0.00 | 0.00 | 0.00 | 84 | 1018.1 |